Weather History for Needles, CA

Change the Weather History Date:

Thursday, May 17, 2012

  Actual Average Record
Temperature  
Mean Temperature 92 °F -  
Max Temperature 107 °F 94 °F 109 °F (1970)
Min Temperature 77 °F 66 °F 52 °F (1962)
Cooling Degree Days 27    
Growing Degree Days 42 (Base 50)    
Moisture  
Dew Point 26 °F    
Average Humidity 9    
Maximum Humidity 15    
Minimum Humidity 5    
Precipitation  
Precipitation 0.00 in - - ()
Sea Level Pressure  
Sea Level Pressure 29.55 in    
Wind  
Wind Speed 10 mph (SW)    
Max Wind Speed 28 mph    
Max Gust Speed 38 mph    
Visibility 10 miles    
Events      
Averages and records for this station are not official NWS values.
T = Trace of Precipitation, MM = Missing Value Source: NWS Daily Summary

Daily Weather History Graph

Daily Weather History Graph

Search for Another Location

Airport:

Trip Planner

Search our weather history database for the weather conditions in past years. The results will help you decide how hot, cold, wet, or windy it might be!

Date:

Astronomy

May. 17, 2012 Rise Set
Actual Time 5:33 AM PDT 7:36 PM PDT
Civil Twilight 5:05 AM PDT 8:04 PM PDT
Nautical Twilight 4:31 AM PDT 8:39 PM PDT
Astronomical Twilight 3:54 AM PDT 9:16 PM PDT
Moon 3:27 AM PDT (5/17) 4:57 PM PDT (5/17)
Length of Visible Light 14h 59m
Length of Day
14h 03m
Waning Crescent, 9% of the Moon is Illuminated
May 17
Waning Crescent
May 20
New
May 28
First Quarter
Jun 4
Full
Jun 11
Last Quarter

Hourly Weather History & Observations

Time (PDT) Temp. Dew Point Humidity Pressure Visibility Wind Dir Wind Speed Gust Speed Precip Events Conditions
12:56 AM 91.9 °F 17.1 °F 6% 29.61 in 10.0 mi Variable 4.6 mph - N/A   Clear
1:56 AM 84.9 °F 17.1 °F 8% 29.60 in 10.0 mi WSW 9.2 mph - N/A   Clear
2:56 AM 82.0 °F 19.0 °F 10% 29.60 in 10.0 mi West 10.4 mph - N/A   Clear
3:56 AM 82.9 °F 21.0 °F 10% 29.62 in 10.0 mi Calm Calm - N/A   Clear
4:56 AM 80.1 °F 23.0 °F 12% 29.62 in 10.0 mi SW 3.5 mph - N/A   Clear
5:56 AM 77.0 °F 21.9 °F 13% 29.63 in 10.0 mi NW 4.6 mph - N/A   Clear
6:56 AM 84.0 °F 23.0 °F 11% 29.64 in 10.0 mi Calm Calm - N/A   Clear
7:56 AM 90.0 °F 25.0 °F 10% 29.64 in 10.0 mi Calm Calm - N/A   Clear
8:56 AM 93.9 °F 26.1 °F 9% 29.63 in 10.0 mi East 5.8 mph - N/A   Clear
9:56 AM 98.1 °F 30.0 °F 9% 29.63 in 10.0 mi Variable 5.8 mph - N/A   Clear
10:33 AM 100.4 °F 30.2 °F 9% 29.73 in 10.0 mi SSW 17.3 mph 21.9 mph N/A   Clear
10:56 AM 100.9 °F 28.0 °F 8% 29.62 in 10.0 mi South 10.4 mph 24.2 mph N/A   Clear
11:56 AM 102.9 °F 28.0 °F 7% 29.60 in 10.0 mi South 18.4 mph 26.5 mph N/A   Clear
12:56 PM 104.0 °F 28.0 °F 7% 29.57 in 10.0 mi South 20.7 mph 29.9 mph N/A   Clear
1:56 PM 106.0 °F 21.0 °F 5% 29.55 in 10.0 mi SSW 23.0 mph 32.2 mph N/A   Clear
2:56 PM 106.0 °F 24.1 °F 6% 29.52 in 10.0 mi SSW 24.2 mph 33.4 mph N/A   Clear
3:56 PM 107.1 °F 28.0 °F 6% 29.49 in 10.0 mi SSW 24.2 mph 38.0 mph N/A   Clear
4:56 PM 106.0 °F 25.0 °F 6% 29.47 in 10.0 mi SW 24.2 mph 36.8 mph N/A   Clear
5:56 PM 105.1 °F 28.0 °F 7% 29.45 in 10.0 mi SSW 16.1 mph 25.3 mph N/A   Clear
6:56 PM 102.0 °F 32.0 °F 9% 29.42 in 10.0 mi SSW 17.3 mph 28.8 mph N/A   Clear
7:56 PM 99.0 °F 34.0 °F 10% 29.42 in 10.0 mi SW 17.3 mph 25.3 mph N/A   Clear
8:56 PM 98.1 °F 39.0 °F 13% 29.43 in 10.0 mi SW 27.6 mph 36.8 mph N/A   Clear
9:56 PM 95.0 °F 39.9 °F 15% 29.45 in 10.0 mi SW 20.7 mph 27.6 mph N/A   Clear
10:56 PM 93.9 °F 24.1 °F 8% 29.46 in 10.0 mi WSW 20.7 mph 28.8 mph N/A   Clear
11:56 PM 91.0 °F 26.1 °F 10% 29.47 in 10.0 mi WSW 16.1 mph - N/A   Clear